[[{"header":{"parameterUnit":"m.s-1","parameterCategory":1,"la1":30.2991,"la2":30.254,"lo1":-89.0895,"lo2":-89.0444,"dy":0.0017,"dx":0.0017,"nx":28,"ny":28,"refTime":"2024-02-03T03:00:00:Z","depth":0,"parameterNumber":2,"parameterNumberName":"U-component_of_WINDS"},"data":[0,0,0,0,0,0,0,0,0,0,0,0,0,0,0,0,0,0,0,0,0,0,0,0,0,0,0,0,0,0,0,0,0,0,0,0,0,0,0,0,0,0,0,0,0,0,0,0,0,0,0,0,0,0,0,0,0,0,-0.6271,-0.6271,0,-0.6234,-0.6234,-0.6234,-0.6191,-0.6191,-0.619,-0.6189,-0.6154,-0.6153,-0.6153,0,0,0,0,0,0,0,0,0,0,0,0,0,-0.6308,-0.6307,-0.6271,-0.6271,-0.627,-0.6234,-0.6234,-0.6233,-0.6191,-0.6191,-0.619,-0.6189,-0.6154,-0.6153,-0.6153,0,0,0,0,0,0,0,0,0,0,0,0,0,-0.6283,-0.6307,-0.6271,-0.6245,-0.6242,-0.6235,-0.6234,-0.6233,-0.6191,-0.6191,-0.619,-0.6189,-0.6154,-0.6153,-0.6153,-0.6169,0,0,-0.6151,-0.6151,0,0,0,0,0,0,0,0,-0.6285,-0.6282,-0.6249,-0.6247,-0.6244,-0.6216,-0.6233,-0.6212,-0.6192,-0.6211,-0.6189,-0.6188,-0.6175,-0.6173,-0.6168,-0.6167,-0.6165,-0.6151,-0.6151,-0.6151,-0.615,0,0,0,0,0,0,0,-0.6287,-0.6284,-0.6257,-0.6249,-0.6246,-0.6236,-0.6231,-0.6229,-0.6199,-0.6209,-0.6206,-0.6202,-0.6174,-0.6169,-0.6167,-0.6165,-0.6151,-0.6151,-0.615,-0.615,-0.6175,-0.6176,0,0,0,0,0,0,-0.6292,-0.6285,-0.6258,-0.6256,-0.6262,-0.6236,-0.6231,-0.6226,-0.6199,-0.6194,-0.6203,-0.62,-0.617,-0.6168,-0.6166,-0.6182,-0.6151,-0.615,-0.615,-0.6174,-0.6175,-0.6176,0,0,0,0,0,0,-0.6293,-0.629,-0.6259,-0.627,-0.6265,-0.6236,-0.6231,-0.6226,-0.6221,-0.6194,-0.6189,-0.6203,-0.6169,-0.6166,-0.6168,-0.618,-0.615,-0.6149,-0.6173,-0.6174,-0.6175,-0.6215,0,0,0,0,0,0,-0.6294,-0.6291,-0.6296,-0.627,-0.6265,-0.6262,-0.6232,-0.6226,-0.622,-0.6216,-0.6193,-0.6188,-0.6168,-0.6169,-0.6167,-0.6179,-0.6149,-0.6171,-0.6173,-0.6175,-0.6213,-0.6218,-0.6222,0,0,0,0,0,-0.6296,-0.6309,-0.6296,-0.6293,-0.627,-0.6263,-0.626,-0.6236,-0.6221,-0.6226,-0.6209,-0.6189,-0.6179,-0.617,-0.6167,-0.6179,-0.617,-0.6173,-0.6175,-0.6211,-0.6217,-0.6222,0,0,0,0,0,0,-0.6338,-0.6305,-0.6291,-0.6296,-0.6282,-0.6256,-0.6261,-0.6243,-0.6234,-0.6231,-0.6202,-0.6197,-0.6202,-0.6191,-0.6181,-0.6193,-0.6172,-0.6174,-0.62,-0.6206,-0.621,-0.6213,-0.6148,0,0,0,0,0,-0.6348,-0.6343,-0.6315,-0.6323,-0.6317,-0.629,-0.6286,-0.6269,-0.6254,-0.6248,-0.6231,-0.6218,-0.6211,-0.6208,-0.6201,-0.6211,-0.6206,-0.6218,-0.6223,-0.6227,-0.6229,-0.6233,-0.6238,-0.6183,-0.6183,-0.6183,0,0,-0.6368,-0.635,-0.6349,-0.6331,-0.6318,-0.6315,-0.6286,-0.6284,-0.6281,-0.6248,-0.6248,-0.6235,-0.6219,-0.6224,-0.6226,-0.6215,-0.6243,-0.623,-0.6233,-0.6233,-0.6236,-0.6241,-0.6246,-0.6185,-0.6184,-0.6184,0,0,-0.6403,-0.6389,-0.6393,-0.6381,-0.6362,-0.6345,-0.6346,-0.6322,-0.6312,-0.6311,-0.6286,-0.6283,-0.6273,-0.6262,-0.6256,-0.6287,-0.6268,-0.6286,-0.6311,-0.6315,-0.632,-0.6323,-0.6334,-0.6339,-0.6288,-0.6288,-0.6288,0,-0.6431,-0.6424,-0.6398,-0.6397,-0.639,-0.636,-0.6364,-0.6354,-0.6334,-0.633,-0.6318,-0.6304,-0.6291,-0.6294,-0.6302,-0.6297,-0.6298,-0.6288,-0.6321,-0.6324,-0.6328,-0.6338,-0.6342,-0.629,-0.629,-0.629,-0.6289,0,-0.646,-0.6456,-0.6462,-0.6442,-0.6436,-0.6438,-0.6412,-0.6409,-0.6393,-0.6377,-0.6377,-0.636,-0.6349,-0.6348,-0.6332,-0.6349,-0.6342,-0.6326,-0.6305,-0.6335,-0.6344,-0.6348,-0.6293,-0.6292,-0.6292,-0.6291,0,0,-0.652,-0.6486,-0.6488,-0.6479,-0.6456,-0.6453,-0.6454,-0.6442,-0.644,-0.6428,-0.6428,-0.642,-0.6405,-0.6397,-0.638,-0.6384,-0.641,-0.6367,-0.6366,-0.6375,-0.6426,-0.6438,-0.6443,-0.6397,-0.6398,-0.6398,-0.6428,0,-0.6551,-0.6549,-0.6526,-0.6531,-0.6527,-0.6498,-0.6499,-0.6485,-0.6471,-0.6465,-0.645,-0.6444,-0.6425,-0.642,-0.6423,-0.6406,-0.6419,-0.6403,-0.6397,-0.6397,-0.6402,-0.6448,-0.6461,-0.6489,-0.6431,-0.6432,-0.6432,0,-0.6586,-0.6575,-0.658,-0.6556,-0.6554,-0.6555,-0.6542,-0.6538,-0.6522,-0.6511,-0.6502,-0.6483,-0.6483,-0.6463,-0.6462,-0.6452,-0.6448,-0.644,-0.644,-0.6438,-0.6416,-0.6447,-0.6498,-0.6502,-0.6437,-0.6437,-0.6437,0,-0.6629,-0.6615,-0.6616,-0.6609,-0.6582,-0.6584,-0.6573,-0.6556,-0.655,-0.654,-0.6536,-0.6526,-0.652,-0.6513,-0.6491,-0.6479,-0.6493,-0.6472,-0.6484,-0.6485,-0.6488,-0.6488,-0.6539,-0.6487,-0.6487,-0.6487,-0.6487,0,-0.6665,-0.6669,-0.6635,-0.6635,-0.6639,-0.6613,-0.6618,-0.6604,-0.6589,-0.6587,-0.6562,-0.6561,-0.6532,-0.6528,-0.6511,-0.6513,-0.6511,-0.6503,-0.6498,-0.6504,-0.6506,-0.6501,-0.6498,-0.6488,-0.6488,-0.6488,-0.6487,0,-0.6713,-0.669,-0.6689,-0.6664,-0.6658,-0.6662,-0.664,-0.664,-0.6624,-0.6621,-0.6619,-0.6594,-0.6588,-0.6566,-0.6554,-0.6543,-0.655,-0.6542,-0.6555,-0.6552,-0.6566,-0.6565,-0.6615,-0.662,-0.6566,-0.6566,-0.6567,0,-0.6737,-0.674,-0.6714,-0.6711,-0.67,-0.6695,-0.6689,-0.6664,-0.6659,-0.6641,-0.6643,-0.6635,-0.6626,-0.6618,-0.6599,-0.659,-0.6581,-0.6599,-0.6579,-0.6586,-0.658,-0.658,-0.658,-0.6603,-0.6604,-0.6604,-0.6605,0,-0.6783,-0.6771,-0.6763,-0.6752,-0.6745,-0.6735,-0.6723,-0.6722,-0.6693,-0.6689,-0.6682,-0.6676,-0.6664,-0.6656,-0.6644,-0.6633,-0.6614,-0.6611,-0.6614,-0.662,-0.6627,-0.6623,-0.6566,-0.661,-0.661,-0.6609,-0.6609,-0.6609,-0.6819,-0.682,-0.6802,-0.6794,-0.6782,-0.6772,-0.677,-0.6754,-0.6747,-0.6735,-0.6721,-0.6715,-0.67,-0.6682,-0.6673,-0.6668,-0.6658,-0.6662,-0.6663,-0.6664,-0.6667,-0.6629,-0.6666,-0.6666,-0.6666,-0.6666,-0.6666,0,-0.6863,-0.685,-0.6843,-0.6827,-0.6821,-0.6803,-0.679,-0.6786,-0.6781,-0.6768,-0.676,-0.6752,-0.6744,-0.6725,-0.6716,-0.6716,-0.6707,-0.6714,-0.6714,-0.6712,-0.6677,-0.6675,-0.6722,-0.6722,-0.6722,-0.6722,-0.6722,-0.6722,-0.6884,-0.6884,-0.6871,-0.6865,-0.6853,-0.6846,-0.684,-0.6831,-0.682,-0.6812,-0.6805,-0.6792,-0.6777,-0.6766,-0.6758,-0.6753,-0.675,-0.676,-0.6752,-0.6719,-0.6714,-0.6709,-0.6707,-0.676,-0.676,-0.6787,-0.6787,-0.6788]},{"header":{"parameterUnit":"m.s-1","parameterCategory":1,"la1":30.2991,"la2":30.254,"lo1":-89.0895,"lo2":-89.0444,"dy":0.0017,"dx":0.0017,"nx":28,"ny":28,"refTime":"2024-02-03T03:00:00:Z","depth":0,"parameterNumber":3,"parameterNumberName":"V-component_of_WINDS"},"data":[0,0,0,0,0,0,0,0,0,0,0,0,0,0,0,0,0,0,0,0,0,0,0,0,0,0,0,0,0,0,0,0,0,0,0,0,0,0,0,0,0,0,0,0,0,0,0,0,0,0,0,0,0,0,0,0,0,0,0.8004,0.8004,0,0.8022,0.8022,0.8022,0.7989,0.7988,0.7987,0.7986,0.801,0.8012,0.8013,0,0,0,0,0,0,0,0,0,0,0,0,0,0.7945,0.7947,0.8004,0.8004,0.8004,0.8022,0.8022,0.8023,0.7989,0.7988,0.7987,0.7985,0.8009,0.8011,0.8013,0,0,0,0,0,0,0,0,0,0,0,0,0,0.7968,0.7947,0.8004,0.799,0.7989,0.8022,0.8022,0.8023,0.799,0.7988,0.7986,0.7985,0.8009,0.8011,0.8014,0.8063,0,0,0.8021,0.8023,0,0,0,0,0,0,0,0,0.7967,0.797,0.7992,0.7991,0.799,0.8001,0.801,0.8036,0.799,0.799,0.7986,0.7984,0.8009,0.8011,0.8019,0.8064,0.8065,0.8022,0.8023,0.8024,0.8025,0,0,0,0,0,0,0,0.7965,0.7969,0.8011,0.7992,0.7991,0.7984,0.7986,0.8015,0.8009,0.7989,0.7987,0.7989,0.8008,0.8016,0.8019,0.8066,0.8022,0.8024,0.8025,0.8026,0.8153,0.8154,0,0,0,0,0,0,0.7965,0.7968,0.8011,0.8012,0.7974,0.7987,0.7988,0.8,0.8008,0.8008,0.7991,0.7988,0.8013,0.8016,0.802,0.8078,0.8024,0.8027,0.8028,0.8151,0.8153,0.8155,0,0,0,0,0,0,0.7964,0.7969,0.801,0.7989,0.7994,0.7989,0.8003,0.8001,0.8009,0.8009,0.8008,0.8,0.8011,0.8016,0.8052,0.8079,0.8028,0.803,0.8149,0.8152,0.8154,0.8196,0,0,0,0,0,0,0.7962,0.7969,0.7986,0.799,0.7995,0.8041,0.8004,0.8002,0.8013,0.8009,0.8018,0.8017,0.8011,0.8048,0.8055,0.8081,0.8032,0.8146,0.815,0.8153,0.8192,0.8199,0.8206,0,0,0,0,0,0.796,0.7999,0.7988,0.7993,0.8017,0.8043,0.8046,0.8035,0.8015,0.8033,0.8033,0.8017,0.8074,0.8052,0.8059,0.8087,0.8145,0.8149,0.8153,0.8189,0.8198,0.8206,0,0,0,0,0,0,0.8001,0.7999,0.7987,0.8027,0.8035,0.8037,0.806,0.8046,0.8061,0.8057,0.8045,0.8047,0.8086,0.809,0.8066,0.8135,0.8106,0.8112,0.8131,0.814,0.8147,0.8146,0.8034,0,0,0,0,0,0.8014,0.8033,0.8031,0.8067,0.8072,0.8065,0.8076,0.8067,0.8075,0.8079,0.8082,0.8092,0.8112,0.8126,0.8145,0.8192,0.8194,0.8214,0.8221,0.8227,0.8232,0.8257,0.8267,0.8169,0.8169,0.8168,0,0,0.8043,0.8044,0.8057,0.8076,0.8081,0.8102,0.8068,0.8093,0.8109,0.8084,0.8117,0.812,0.813,0.8172,0.8191,0.8176,0.8259,0.8232,0.8237,0.8239,0.8263,0.8272,0.828,0.8171,0.8171,0.817,0,0,0.8106,0.8108,0.8138,0.8143,0.8151,0.8146,0.8153,0.8157,0.8157,0.819,0.8171,0.8191,0.8226,0.8234,0.8243,0.8307,0.8293,0.8314,0.8351,0.8376,0.8384,0.839,0.8414,0.8423,0.8319,0.8319,0.8319,0,0.8141,0.8171,0.8156,0.8181,0.819,0.8166,0.8197,0.8203,0.8217,0.8225,0.8208,0.825,0.8256,0.8299,0.8315,0.8322,0.8331,0.8314,0.8383,0.839,0.8396,0.8419,0.8428,0.8322,0.8321,0.8321,0.8321,0,0.8214,0.8235,0.8259,0.8271,0.8282,0.8311,0.8301,0.8315,0.8304,0.8302,0.8336,0.8341,0.8361,0.837,0.8361,0.8412,0.8403,0.8385,0.8356,0.8408,0.8429,0.8438,0.8325,0.8324,0.8324,0.8323,0,0,0.8306,0.8307,0.8316,0.8321,0.8326,0.8343,0.837,0.8387,0.8399,0.8409,0.8433,0.8462,0.8445,0.8455,0.8446,0.8468,0.8519,0.8447,0.8447,0.8461,0.8576,0.8591,0.8601,0.8509,0.8511,0.8512,0.8576,0,0.8368,0.8413,0.84,0.8446,0.8466,0.8442,0.8466,0.8472,0.847,0.8488,0.8486,0.8507,0.8483,0.8489,0.8509,0.8509,0.8542,0.8504,0.8532,0.8534,0.8531,0.8612,0.8627,0.8687,0.8584,0.8585,0.8586,0,0.8448,0.8459,0.8506,0.8508,0.8515,0.8537,0.8551,0.8567,0.8575,0.8572,0.8582,0.8569,0.8597,0.8566,0.8606,0.858,0.859,0.8592,0.8594,0.8598,0.8564,0.8618,0.8706,0.8715,0.8599,0.8598,0.8597,0,0.8511,0.8537,0.8569,0.8574,0.8576,0.8591,0.8593,0.8599,0.8609,0.8622,0.8629,0.8645,0.8655,0.8668,0.866,0.8639,0.8701,0.867,0.8701,0.8701,0.8716,0.8716,0.8808,0.8721,0.8721,0.8721,0.8721,0,0.8583,0.8614,0.8597,0.8617,0.865,0.8634,0.8668,0.8668,0.8672,0.8692,0.8673,0.8693,0.868,0.8699,0.8693,0.8727,0.8731,0.8731,0.8729,0.8733,0.8733,0.8741,0.8737,0.8723,0.8723,0.8722,0.8722,0,0.866,0.865,0.8682,0.8681,0.8681,0.8706,0.8705,0.8724,0.8719,0.8745,0.875,0.8744,0.8765,0.8758,0.8782,0.8777,0.8821,0.8813,0.8818,0.8816,0.8848,0.8845,0.8949,0.8962,0.8866,0.8867,0.8868,0,0.8707,0.873,0.873,0.874,0.8743,0.8761,0.8771,0.8757,0.8769,0.8778,0.8796,0.8815,0.8829,0.8864,0.8863,0.8881,0.8874,0.8909,0.8877,0.888,0.8876,0.8875,0.8878,0.8917,0.8918,0.8918,0.8919,0,0.8793,0.8786,0.88,0.8813,0.8825,0.8834,0.8842,0.8853,0.8839,0.8853,0.8873,0.8885,0.8907,0.8927,0.8942,0.8946,0.8931,0.8929,0.8937,0.8942,0.8944,0.8945,0.8837,0.8927,0.8926,0.8926,0.8925,0.8925,0.8857,0.8876,0.8878,0.8894,0.8898,0.8906,0.8923,0.892,0.8936,0.8952,0.8943,0.8967,0.8973,0.8992,0.8997,0.9017,0.9004,0.9015,0.9019,0.9022,0.9026,0.894,0.902,0.9019,0.9019,0.9019,0.9019,0,0.8943,0.8942,0.8957,0.8968,0.8981,0.8963,0.8971,0.8983,0.9004,0.901,0.9024,0.9047,0.9066,0.9065,0.9082,0.9098,0.9091,0.9103,0.9103,0.9104,0.9037,0.9028,0.9108,0.9108,0.9108,0.9108,0.9108,0.9108,0.8989,0.9019,0.9012,0.9045,0.9045,0.9066,0.9072,0.9079,0.9084,0.911,0.9125,0.9123,0.9127,0.9144,0.916,0.916,0.9168,0.9182,0.9179,0.9117,0.9108,0.91,0.9092,0.9184,0.9184,0.9245,0.9245,0.9246]}]]